Weather History for Janesville, WI

Change the Weather History Date:

Tuesday, October 2, 2012

  Actual Average Record
Temperature  
Mean Temperature 56 °F -  
Max Temperature 73 °F 63 °F 82 °F (2001)
Min Temperature 39 °F 41 °F 26 °F (2003)
Degree Days  
Heating Degree Days 9    
Growing Degree Days 6 (Base 50)    
Moisture  
Dew Point 41 °F    
Average Humidity 74    
Maximum Humidity 93    
Minimum Humidity 27    
Precipitation  
Precipitation 0.00 in - - ()
Sea Level Pressure  
Sea Level Pressure 29.88 in    
Wind  
Wind Speed 2 mph (NE)    
Max Wind Speed 12 mph    
Max Gust Speed 14 mph    
Visibility 9 miles    
Events Fog    
Averages and records for this station are not official NWS values.
T = Trace of Precipitation, MM = Missing Value Source: NWS Daily Summary

Daily Weather History Graph

Daily Weather History Graph

Search for Another Location

Airport:

Trip Planner

Search our weather history database for the weather conditions in past years. The results will help you decide how hot, cold, wet, or windy it might be!

Date:

Astronomy

Oct. 02, 2012 Rise Set
Actual Time 6:55 AM CDT 6:34 PM CDT
Civil Twilight 6:26 AM CDT 7:03 PM CDT
Nautical Twilight 5:54 AM CDT 7:35 PM CDT
Astronomical Twilight 5:21 AM CDT 8:08 PM CDT
Moon 7:43 PM CDT (10/2) 9:26 AM CDT (10/2)
Length of Visible Light 12h 36m
Length of Day
11h 39m
Waning Gibbous, 94% of the Moon is Illuminated
Oct 2
Waning Gibbous
Oct 8
Last Quarter
Oct 15
New
Oct 21
First Quarter
Oct 29
Full

Hourly Weather History & Observations

Time (CDT) Temp. Windchill Dew Point Humidity Pressure Visibility Wind Dir Wind Speed Gust Speed Precip Events Conditions
12:35 AM 46.4 °F - 41.0 °F 81% 29.84 in 10.0 mi Calm Calm - N/A   Clear
12:55 AM 46.4 °F - 42.8 °F 87% 29.83 in 10.0 mi Calm Calm - N/A   Clear
1:15 AM 44.6 °F - 41.0 °F 87% 29.84 in 10.0 mi Calm Calm - N/A   Clear
1:35 AM 42.8 °F - 41.0 °F 93% 29.84 in 5.0 mi Calm Calm - N/A   Clear
1:55 AM 42.8 °F 41.1 °F 41.0 °F 93% 29.84 in 10.0 mi NNW 3.5 mph - N/A   Clear
2:15 AM 42.8 °F - 39.2 °F 87% 29.83 in 7.0 mi Calm Calm - N/A   Clear
2:55 AM 42.8 °F - 41.0 °F 93% 29.84 in 10.0 mi Calm Calm - N/A   Clear
3:15 AM 42.8 °F - 41.0 °F 93% 29.85 in 7.0 mi Calm Calm - N/A   Clear
3:35 AM 42.8 °F - 41.0 °F 93% 29.85 in 10.0 mi Calm Calm - N/A   Clear
3:55 AM 42.8 °F - 41.0 °F 93% 29.85 in 7.0 mi Calm Calm - N/A   Clear
4:15 AM 42.8 °F - 41.0 °F 93% 29.86 in 7.0 mi Calm Calm - N/A   Clear
4:35 AM 42.8 °F - 41.0 °F 93% 29.86 in 7.0 mi Calm Calm - N/A   Clear
4:55 AM 39.2 °F 37.0 °F 37.4 °F 93% 29.86 in 5.0 mi NW 3.5 mph - N/A   Clear
5:15 AM 41.0 °F - 39.2 °F 93% 29.86 in 7.0 mi Calm Calm - N/A   Clear
5:35 AM 41.0 °F - 37.4 °F 87% 29.86 in 10.0 mi Calm Calm - N/A   Clear
5:45 AM 42.8 °F - 39.2 °F 87% 29.86 in 10.0 mi Calm Calm - N/A   Clear
6:45 AM 39.2 °F - 37.4 °F 93% 29.88 in 6.0 mi Calm Calm - N/A Fog Shallow Fog
7:45 AM 42.8 °F - 39.2 °F 87% 29.89 in 6.0 mi Calm Calm - N/A   Clear
8:45 AM 51.8 °F - 44.6 °F 76% 29.90 in 6.0 mi Calm Calm - N/A   Haze
10:45 AM 64.4 °F - 42.8 °F 45% 29.91 in 10.0 mi NE 8.1 mph - N/A   Clear
11:45 AM 68.0 °F - 42.8 °F 40% 29.90 in 10.0 mi NNE 9.2 mph - N/A   Clear
12:45 PM 71.6 °F - 37.4 °F 29% 29.89 in 10.0 mi NE 8.1 mph - N/A   Clear
1:45 PM 73.4 °F - 37.4 °F 27% 29.87 in 10.0 mi NE 8.1 mph 13.8 mph N/A   Clear
2:45 PM 73.4 °F - 37.4 °F 27% 29.85 in 10.0 mi ENE 8.1 mph - N/A   Clear
3:45 PM 73.4 °F - 37.4 °F 27% 29.85 in 10.0 mi ENE 11.5 mph - N/A   Clear
4:45 PM 73.4 °F - 37.4 °F 27% 29.85 in 10.0 mi NE 5.8 mph - N/A   Clear
5:45 PM 69.8 °F - 39.2 °F 33% 29.86 in 10.0 mi NE 6.9 mph - N/A   Clear
8:45 PM 55.4 °F - 42.8 °F 63% 29.91 in 10.0 mi ENE 5.8 mph - N/A   Clear
9:15 PM 50.0 °F - 42.8 °F 76% 29.92 in 10.0 mi East 3.5 mph - N/A   Clear
9:35 PM 51.8 °F - 42.8 °F 71% 29.92 in 10.0 mi Calm Calm - N/A   Clear
9:55 PM 51.8 °F - 42.8 °F 71% 29.93 in 10.0 mi Calm Calm - N/A   Clear
10:15 PM 50.0 °F - 44.6 °F 82% 29.93 in 10.0 mi Calm Calm - N/A   Clear
10:35 PM 50.0 °F - 44.6 °F 82% 29.93 in 10.0 mi Calm Calm - N/A   Clear
10:55 PM 50.0 °F - 44.6 °F 82% 29.93 in 7.0 mi Calm Calm - N/A   Clear
11:15 PM 50.0 °F - 46.4 °F 87% 29.92 in 7.0 mi East 3.5 mph - N/A   Clear
11:35 PM 51.8 °F - 46.4 °F 82% 29.92 in 7.0 mi Calm Calm - N/A   Clear
11:55 PM 51.8 °F - 46.4 °F 82% 29.92 in 7.0 mi Calm Calm - N/A   Clear